Satellite: SO-50
Catalog number: 27607
Epoch time:      12054.17480086
Element set:     695
Inclination:      064.5585 deg
RA of node:       284.7278 deg
Eccentricity:    0.0085204
Arg of perigee:   270.9684 deg
Mean anomaly:     088.1655 deg
Mean motion:   14.72223166 rev/day
Decay rate:       4.62e-06 rev/day^2
Epoch rev:           49303
Checksum:              327

Satellite: CO-55
Catalog number: 27844
Epoch time:      12054.50089405
Element set:     316
Inclination:      098.7051 deg
RA of node:       064.5427 deg
Eccentricity:    0.0009373
Arg of perigee:   189.9245 deg
Mean anomaly:     170.1751 deg
Mean motion:   14.20964958 rev/day
Decay rate:       1.98e-06 rev/day^2
Epoch rev:           44860
Checksum:              326

Satellite: CO-57
Catalog number: 27848
Epoch time:      12053.49881613
Element set:    0265
Inclination:      098.7130 deg
RA of node:       062.8388 deg
Eccentricity:    0.0009057
Arg of perigee:   196.8721 deg
Mean anomaly:     163.2170 deg
Mean motion:   14.20723838 rev/day
Decay rate:       1.53e-06 rev/day^2
Epoch rev:           44840
Checksum:              320

Satellite: AO-51
Catalog number: 28375
Epoch time:      12054.78152809
Element set:     201
Inclination:      098.1312 deg
RA of node:       025.4701 deg
Eccentricity:    0.0084721
Arg of perigee:   027.8488 deg
Mean anomaly:     332.7199 deg
Mean motion:   14.40898154 rev/day
Decay rate:       1.52e-06 rev/day^2
Epoch rev:           40229
Checksum:              301

Satellite: CP3
Catalog number: 31129
Epoch time:      12054.49250544
Element set:      99
Inclination:      097.8865 deg
RA of node:       069.0197 deg
Eccentricity:    0.0102404
Arg of perigee:   119.5675 deg
Mean anomaly:     241.5780 deg
Mean motion:   14.52896726 rev/day
Decay rate:       5.04e-06 rev/day^2
Epoch rev:           25732
Checksum:              316

Satellite: CO-65
Catalog number: 32785
Epoch time:      12053.18023481
Element set:    0237
Inclination:      097.8158 deg
RA of node:       116.9216 deg
Eccentricity:    0.0015855
Arg of perigee:   081.3389 deg
Mean anomaly:     278.9585 deg
Mean motion:   14.82694771 rev/day
Decay rate:       7.07e-06 rev/day^2
Epoch rev:           20657
Checksum:              343

Satellite: PRISM
Catalog number: 33493
Epoch time:      12054.80555714
Element set:     452
Inclination:      098.1520 deg
RA of node:       192.8160 deg
Eccentricity:    0.0018188
Arg of perigee:   309.7915 deg
Mean anomaly:     050.1700 deg
Mean motion:   14.83229512 rev/day
Decay rate:      2.158e-05 rev/day^2
Epoch rev:           16679
Checksum:              295

Satellite: SOHLA-1
Catalog number: 33496
Epoch time:      12054.88061250
Element set:     657
Inclination:      098.0922 deg
RA of node:       167.4598 deg
Eccentricity:    0.0007451
Arg of perigee:   049.2206 deg
Mean anomaly:     310.9644 deg
Mean motion:   14.69872258 rev/day
Decay rate:       3.21e-06 rev/day^2
Epoch rev:           16545
Checksum:              312

Satellite: SO-67
Catalog number: 35870
Epoch time:      12054.81112396
Element set:     709
Inclination:      097.2479 deg
RA of node:       094.5730 deg
Eccentricity:    0.0001597
Arg of perigee:   165.3369 deg
Mean anomaly:     247.2159 deg
Mean motion:   15.22832943 rev/day
Decay rate:      3.487e-05 rev/day^2
Epoch rev:           13520
Checksum:              327

Satellite: TISAT-1
Catalog number: 36799
Epoch time:      12054.81226880
Element set:     726
Inclination:      098.0722 deg
RA of node:       130.3051 deg
Eccentricity:    0.0015167
Arg of perigee:   178.3209 deg
Mean anomaly:     181.8038 deg
Mean motion:   14.81537759 rev/day
Decay rate:      1.441e-05 rev/day^2
Epoch rev:            8755
Checksum:              311

Satellite: STUDSAT
Catalog number: 36801
Epoch time:      12053.88739087
Element set:     342
Inclination:      098.0796 deg
RA of node:       129.6475 deg
Eccentricity:    0.0012935
Arg of perigee:   169.0517 deg
Mean anomaly:     191.0968 deg
Mean motion:   14.83161242 rev/day
Decay rate:      4.192e-05 rev/day^2
Epoch rev:            8742
Checksum:              321

Satellite: FO-69
Catalog number: 37227
Epoch time:      12046.04422040
Element set:    0103
Inclination:      071.9672 deg
RA of node:       223.6606 deg
Eccentricity:    0.0017759
Arg of perigee:   195.0744 deg
Mean anomaly:     164.9889 deg
Mean motion:   14.76923927 rev/day
Decay rate:       3.30e-06 rev/day^2
Epoch rev:           01791
Checksum:              314

Satellite: FO-70
Catalog number: 37380
Epoch time:      12046.50349291
Element set:    0106
Inclination:      071.9705 deg
RA of node:       223.0530 deg
Eccentricity:    0.0018152
Arg of perigee:   191.1227 deg
Mean anomaly:     168.9536 deg
Mean motion:   14.76682035 rev/day
Decay rate:       3.31e-06 rev/day^2
Epoch rev:           01787
Checksum:              285

/EX
SB KEPS @ AMSAT  $ORB12054.W
Orbital Elements  12054.WEATHER

HR AMSAT ORBITAL ELEMENTS FOR WEATHER SATELLITES
FROM WA5QGD FORT WORTH,TX February 23, 2012
Send SUBSCRIBE KEPS/UNSUBSCRIBE KEPS to majordomo@amsat.org only
BID: ORB12054.W
TO ALL RADIO AMATEURS BT

